Theta_e
347 346 345 346 347 349 350 352 355 356 358 354 350 352 356 362 363 365 366 364 363 359 354 352 349 349 353 351 351 353 352 353 354 350 346 349 350 349 349 349 348 348 350 351 351 351 350 350 350 352 352 353 353 352 352 352 352 351 351 353 353 353 353 352 353 352 352 351 351 351 350 351 352 353 352 351 351 350 349 350 349 348 348 350 350 349 349 350 350 350 350 351 350 350 350 350 350
347 346 345 346 347 351 353 354 359 357 356 351 349 355 357 363 363 364 367 364 363 358 352 349 347 352 353 350 349 351 352 351 351 350 349 349 349 350 349 348 349 348 350 350 351 352 350 350 351 352 352 353 352 351 351 351 352 351 352 353 353 353 353 353 353 353 353 352 352 353 351 351 352 352 351 351 352 351 349 349 349 349 349 351 351 351 350 350 350 351 351 351 350 350 350 350 350
347 346 346 348 348 351 355 356 359 355 352 349 349 359 361 363 364 364 365 362 359 354 350 348 350 354 352 351 352 352 353 349 346 347 347 349 350 350 350 349 350 349 350 351 350 351 350 350 351 352 352 353 351 351 351 350 351 351 352 353 353 353 353 353 354 353 353 352 353 354 353 352 352 351 351 352 352 351 351 350 350 349 350 351 351 351 351 350 350 351 351 351 350 349 349 349 350
347 347 347 349 349 352 357 358 360 355 350 347 347 360 364 362 364 363 362 359 356 351 350 350 353 354 352 354 353 353 353 349 347 347 347 349 350 350 351 350 350 350 350 352 350 349 350 350 351 352 352 352 350 350 350 350 350 351 351 352 353 353 354 354 353 353 352 352 352 353 353 352 351 352 352 352 352 351 351 351 350 350 350 351 351 351 351 350 350 350 351 351 351 349 349 349 349
347 348 348 351 355 357 360 362 363 358 353 351 350 360 364 362 363 362 360 357 354 352 351 351 355 353 352 353 352 354 352 349 348 348 348 349 350 350 352 351 350 351 351 352 349 348 350 350 350 351 351 351 350 350 350 350 350 350 351 351 352 353 353 354 353 352 351 351 351 352 353 352 352 352 352 352 352 352 352 352 351 350 349 350 350 350 351 350 350 350 351 351 351 350 350 350 350
347 348 348 351 356 357 361 358 357 357 360 361 357 361 362 362 363 360 359 357 354 352 351 352 355 354 353 352 351 352 350 349 348 348 349 349 350 351 352 352 352 352 352 351 348 349 350 350 350 350 351 352 351 350 350 351 350 351 351 350 351 353 353 353 351 350 351 351 351 351 352 353 352 352 352 352 352 352 352 352 351 351 349 349 349 349 349 350 350 351 350 350 350 350 350 350 348
347 349 349 354 357 358 363 354 351 354 357 362 360 360 361 361 361 359 360 358 356 353 352 353 352 355 356 352 351 351 349 350 349 348 349 350 350 351 352 352 353 353 353 352 349 349 349 349 350 350 352 353 352 350 350 350 351 352 352 350 351 353 353 352 350 350 351 351 351 351 351 352 353 352 352 351 351 352 353 353 351 351 350 349 349 348 349 350 351 350 350 349 349 349 348 348 347
347 351 351 358 364 361 361 353 352 356 357 360 359 359 361 361 359 359 361 359 358 355 353 353 351 357 356 351 353 352 350 350 349 349 350 350 350 351 352 352 353 353 353 353 350 348 348 349 351 351 352 353 352 351 351 351 352 353 351 350 352 353 352 351 351 352 352 351 350 350 351 352 352 353 353 352 352 352 353 353 352 352 351 350 349 348 349 349 350 350 351 350 348 348 348 348 348
348 353 355 359 365 359 354 352 353 358 359 360 359 360 360 359 358 359 360 359 358 355 354 353 351 358 356 353 354 351 350 350 350 350 350 350 351 351 352 352 353 353 353 352 350 348 347 350 351 351 352 353 353 351 352 352 352 351 350 350 351 351 350 350 352 353 352 350 349 350 351 351 351 352 353 353 353 353 353 353 352 353 352 351 351 350 348 347 348 350 351 351 350 349 349 349 349
351 354 359 363 360 351 346 348 352 357 360 359 359 360 360 357 358 360 360 359 357 355 354 351 352 356 355 355 354 351 350 350 350 350 350 350 350 351 351 353 353 353 353 352 351 348 348 350 351 352 352 353 353 353 352 352 352 350 350 350 351 350 350 351 352 352 351 350 350 350 350 351 350 350 351 352 352 352 351 351 351 352 352 351 350 351 350 348 347 349 351 351 351 350 349 349 348
356 354 358 362 354 346 343 346 351 357 359 359 360 359 359 357 358 360 360 360 356 355 353 352 355 355 354 355 354 352 351 350 350 350 350 350 350 351 352 352 353 353 353 352 351 349 349 350 351 352 353 353 352 352 352 351 351 351 351 351 351 351 351 352 352 352 351 350 349 350 350 350 350 350 351 351 351 351 350 349 349 350 351 351 351 351 351 350 346 347 350 350 349 348 348 349 348
360 359 359 358 352 349 349 349 352 358 359 359 360 360 357 356 359 360 359 358 355 355 354 354 355 353 355 356 354 352 351 350 350 349 350 350 350 351 352 353 353 353 353 352 351 350 350 351 351 352 353 352 351 351 351 349 348 348 350 351 351 351 351 352 352 351 350 349 349 349 349 350 350 350 351 351 350 350 349 349 349 349 350 351 352 351 351 351 346 346 349 350 350 348 348 348 349
360 362 360 357 354 354 353 352 356 358 358 358 360 359 356 356 358 358 357 356 355 356 354 353 352 353 356 355 353 350 349 350 350 350 350 350 350 351 352 352 353 353 353 352 352 351 350 351 351 352 352 352 351 351 349 348 346 346 348 349 349 350 351 351 350 350 350 350 350 349 349 350 350 350 350 351 352 352 351 350 349 350 350 351 351 352 352 350 348 347 347 349 350 350 348 347 348
360 361 359 358 357 357 355 353 355 354 353 357 360 358 356 356 357 354 355 356 355 355 353 351 350 354 356 355 354 350 349 350 350 350 350 350 350 351 351 352 353 353 352 352 352 351 350 352 353 352 351 352 352 351 349 347 346 346 347 347 348 349 350 350 350 350 351 351 351 351 351 351 351 351 351 352 353 352 352 351 351 352 351 351 351 352 352 350 349 348 347 347 348 348 348 348 346
359 358 359 362 357 354 355 354 354 350 350 358 359 357 357 357 357 353 354 357 355 351 351 351 350 354 356 356 355 350 349 350 349 350 350 351 351 351 352 353 353 353 352 352 352 351 351 352 353 352 351 351 352 352 350 348 347 346 347 347 348 350 350 351 351 351 351 352 352 352 352 352 351 352 353 353 353 352 353 352 352 352 351 350 350 350 350 349 349 348 347 347 347 348 349 350 349
356 357 362 362 355 351 353 355 355 350 351 359 358 356 358 357 355 353 352 353 354 350 350 352 349 351 352 353 353 349 350 350 349 350 350 351 351 351 352 352 352 352 352 353 352 350 351 352 352 352 351 351 352 352 350 349 348 347 347 349 350 351 352 352 351 351 352 353 352 351 350 351 351 352 353 352 352 352 352 353 353 352 350 350 350 349 349 349 349 349 350 349 348 350 351 351 351
353 359 365 359 354 352 352 355 354 348 353 361 358 357 359 358 353 352 351 351 353 352 351 351 349 350 350 351 352 350 350 349 350 350 351 351 350 351 352 352 352 352 352 352 352 350 350 351 351 351 350 350 351 351 350 350 350 349 349 350 351 351 351 350 350 350 352 352 352 350 349 350 350 351 352 352 352 351 351 352 352 351 349 349 349 349 348 348 349 350 351 350 350 351 351 352 351
357 362 361 355 356 355 353 355 351 349 357 360 358 357 357 358 355 352 352 354 353 353 352 351 350 350 351 352 351 350 350 349 350 350 350 350 350 351 352 352 352 352 352 352 351 350 350 351 351 350 350 350 350 350 350 350 351 351 350 350 349 350 349 349 350 350 351 351 350 350 349 350 350 350 350 351 351 351 350 351 352 351 349 349 349 348 347 347 348 349 350 351 350 350 351 352 352
358 361 358 355 359 357 353 353 350 349 355 359 358 356 356 357 355 353 356 356 354 355 354 352 352 350 351 352 351 350 350 349 350 350 350 350 350 351 352 352 351 352 352 352 351 351 350 351 350 350 350 350 350 350 350 350 351 351 350 349 349 349 349 349 350 349 350 350 348 348 348 348 349 350 349 349 351 350 350 351 351 351 350 349 348 347 348 347 347 347 349 351 350 350 351 351 352
358 358 358 358 358 356 354 353 352 349 351 357 358 355 355 355 353 353 356 357 355 356 355 353 353 351 350 350 350 350 349 349 350 350 351 350 350 351 351 351 351 352 353 352 352 351 351 351 350 350 350 350 350 350 350 350 350 350 350 349 349 350 349 349 349 348 348 349 347 346 346 346 347 350 350 349 350 349 350 350 349 350 350 349 347 348 350 349 349 349 349 350 350 350 352 352 352
357 358 360 358 354 356 355 351 350 348 350 355 357 356 356 354 352 353 356 358 357 356 354 353 353 351 350 349 349 350 349 350 350 350 351 350 350 351 351 351 350 352 353 353 352 352 352 351 351 350 350 350 351 351 351 351 350 350 350 349 349 349 348 348 348 348 348 348 345 345 346 345 347 349 349 349 350 350 350 350 349 350 350 348 348 350 350 348 349 351 350 350 352 351 351 352 352
358 358 359 357 355 357 355 350 350 349 351 355 356 356 355 353 352 353 355 359 358 355 353 352 351 349 349 348 348 349 349 349 349 350 351 350 350 350 351 351 351 352 352 353 353 352 351 351 351 351 349 349 351 351 351 351 351 351 350 349 349 349 348 347 347 347 347 347 345 345 348 348 349 350 349 349 349 349 351 351 350 349 350 349 350 351 349 347 348 349 348 348 350 350 350 349 349
358 358 357 357 357 358 356 353 353 350 351 354 355 355 353 354 354 353 354 356 355 353 352 350 350 350 350 349 348 347 346 347 349 350 350 350 350 350 351 350 350 351 352 353 353 353 351 351 351 351 350 349 350 350 351 351 351 352 351 349 349 349 348 347 348 347 345 344 343 343 348 351 351 351 349 348 348 349 351 351 350 349 350 350 350 351 349 348 349 348 348 348 349 350 350 349 349
355 357 356 356 355 355 355 352 351 350 350 352 352 352 353 355 356 353 353 353 351 351 351 350 351 352 351 348 346 346 346 347 349 350 350 350 351 351 350 351 350 351 352 353 352 353 352 351 351 351 351 350 351 351 352 353 352 353 352 351 351 350 348 350 349 346 343 342 341 343 349 351 352 353 351 350 349 350 350 349 350 350 352 351 350 352 350 349 349 349 350 351 351 351 352 351 352
353 355 354 353 352 351 351 348 348 348 349 349 350 352 353 354 354 353 353 352 351 351 350 349 350 351 349 348 347 346 347 348 349 350 351 350 350 350 350 350 350 351 352 352 352 352 352 351 350 351 351 351 351 352 352 353 352 353 353 352 352 350 349 351 347 344 344 342 341 343 348 351 352 353 352 352 350 350 350 350 351 353 353 353 353 353 351 350 349 350 351 352 352 352 353 354 353
350 353 353 352 351 349 348 347 347 346 346 348 350 352 352 351 351 353 353 351 351 351 350 350 350 349 349 348 347 347 346 347 350 350 351 350 350 350 350 350 350 351 351 352 352 352 352 351 350 350 351 351 351 351 352 352 352 353 352 352 352 350 351 350 346 346 346 344 343 345 348 350 351 353 353 351 350 351 350 351 352 354 354 354 354 353 351 350 351 351 352 352 352 352 353 352 352
344 347 349 350 349 347 346 345 344 343 343 347 349 351 351 350 351 354 353 351 352 352 351 350 350 350 350 349 348 348 348 348 350 351 351 350 350 350 351 351 351 351 351 352 352 351 352 351 351 350 350 351 351 351 352 352 352 352 352 352 351 351 351 350 348 348 346 344 345 347 349 349 350 352 352 351 351 351 351 352 353 353 354 353 353 353 352 352 352 352 352 351 350 351 351 351 351
341 342 343 343 342 341 340 340 341 341 343 345 347 350 350 350 351 353 352 351 352 352 353 351 351 351 350 349 348 349 350 350 351 351 351 351 350 350 351 351 351 351 351 351 352 351 351 351 351 350 349 350 350 351 351 351 352 352 352 351 351 351 352 351 350 348 344 342 343 346 350 349 349 350 351 351 351 352 352 353 353 353 353 353 352 352 352 352 351 351 352 352 351 351 353 352 352
339 340 341 341 338 339 338 338 339 340 342 343 346 348 349 351 351 351 351 352 352 353 353 352 352 351 349 349 348 348 349 350 351 351 352 351 351 350 350 351 350 351 352 351 352 351 351 351 351 350 348 347 348 350 351 351 351 351 351 350 350 350 350 350 348 344 341 341 341 345 349 350 350 350 350 350 350 351 352 352 353 353 352 352 352 352 351 350 350 351 351 352 353 354 356 355 354
336 336 339 339 336 338 339 338 339 340 341 343 345 341 344 352 349 349 352 352 353 353 354 353 352 352 350 349 348 348 348 350 351 351 352 351 351 351 351 351 350 351 352 352 352 351 351 351 351 350 349 346 347 349 350 350 350 350 350 349 348 347 346 345 342 341 340 340 341 342 346 349 351 350 350 350 350 351 351 351 352 352 351 351 351 352 352 350 350 352 352 354 355 355 356 355 354
334 332 333 335 331 333 339 338 338 341 341 343 345 335 339 350 348 348 352 352 354 354 354 354 353 352 350 350 348 347 348 350 351 351 352 352 352 352 351 351 351 351 352 352 351 352 352 351 351 351 349 347 344 345 348 349 348 348 348 348 347 345 341 340 340 340 341 342 343 344 346 348 351 351 351 351 351 351 351 352 352 351 352 351 352 352 352 351 352 353 353 355 356 355 355 354 353
330 326 325 331 328 331 339 337 337 342 341 343 344 335 339 348 346 348 352 352 354 355 355 354 353 353 351 350 349 347 347 349 350 351 352 352 352 352 351 350 350 351 351 352 352 352 352 352 351 351 350 347 343 342 345 345 344 344 344 345 346 343 339 338 339 340 341 342 344 346 347 348 350 351 352 352 352 351 352 352 352 351 352 352 352 352 352 353 353 354 354 355 356 356 354 351 350
327 324 321 327 328 329 336 337 337 339 342 345 343 338 341 346 346 348 351 353 354 356 356 355 353 353 352 351 349 348 348 348 349 350 352 352 352 352 351 350 350 350 350 351 352 352 352 352 351 352 350 346 343 342 341 341 342 340 339 341 343 341 337 336 337 338 340 341 342 346 349 349 350 351 352 352 352 352 352 352 352 352 351 352 352 351 352 353 354 353 353 354 354 354 351 347 348
323 324 322 326 329 329 331 335 336 336 340 345 345 343 343 344 347 350 351 353 354 356 356 355 354 353 353 351 350 349 349 348 348 350 352 352 352 352 352 351 350 349 349 350 351 352 352 352 352 352 350 347 345 344 341 340 339 336 337 339 339 338 336 337 336 337 338 338 340 346 350 351 351 352 352 353 352 353 352 351 351 352 352 352 352 352 352 353 354 353 354 355 352 351 349 345 345
321 322 321 323 327 328 330 335 336 336 339 343 345 345 344 344 347 350 352 352 354 356 356 355 354 353 353 352 350 350 350 349 349 350 352 352 352 352 352 352 350 350 349 350 351 351 352 353 352 351 350 349 348 347 346 344 338 335 338 338 337 338 336 337 337 336 337 337 340 346 351 352 352 353 352 352 352 353 353 351 351 352 353 353 353 354 354 353 353 353 355 356 352 348 344 342 344
324 325 323 322 324 326 331 333 333 336 338 341 344 343 344 345 347 352 352 353 354 355 356 356 355 354 353 353 351 351 350 349 350 351 351 352 352 353 352 352 351 350 349 349 350 351 352 352 352 351 351 350 350 349 349 348 344 342 342 341 340 338 336 337 336 336 337 337 341 347 351 352 352 352 352 352 352 352 353 352 352 352 353 353 353 355 356 355 354 355 356 355 353 348 340 338 339
327 328 327 326 324 326 331 333 331 333 334 336 341 342 343 344 346 351 352 353 355 355 357 357 356 355 354 354 352 352 352 350 351 352 351 352 352 353 353 353 352 350 350 349 350 351 351 351 351 352 351 351 351 350 349 349 348 347 346 345 344 341 339 337 336 336 338 339 342 348 351 351 352 352 352 352 351 352 352 352 352 353 353 354 353 355 356 356 356 355 355 353 352 349 343 338 337
326 326 325 325 325 326 331 331 329 332 333 334 340 341 342 343 345 349 352 354 355 354 357 357 356 356 355 354 354 353 352 351 351 352 352 352 352 353 353 353 353 352 350 350 350 350 351 351 352 352 351 351 351 349 348 348 348 346 345 343 342 344 341 337 338 338 337 339 343 349 351 351 352 352 352 352 352 351 351 352 352 353 353 354 354 355 355 355 355 355 355 355 353 349 344 340 338
325 325 324 322 325 327 329 330 329 330 331 332 338 337 338 342 344 348 352 354 355 354 355 355 356 356 355 355 354 354 353 352 351 351 352 353 353 353 353 353 353 353 352 351 350 350 351 351 352 352 351 351 351 348 346 346 345 343 343 342 340 343 341 337 340 339 336 337 343 349 351 351 352 352 352 353 353 352 352 352 352 352 353 353 354 355 354 355 355 356 356 356 353 348 343 341 339
323 324 323 321 325 325 324 327 328 330 329 331 337 334 336 342 345 349 352 352 354 353 353 354 355 356 356 355 354 354 354 353 352 351 351 353 353 353 353 354 354 354 353 352 351 351 351 352 352 352 352 351 350 348 346 345 344 342 343 344 341 342 341 339 338 337 334 335 342 348 350 351 352 352 353 353 353 353 353 353 352 352 353 353 354 354 355 355 356 357 357 356 354 349 345 345 341
320 323 323 323 326 326 324 327 328 328 329 331 332 327 328 338 344 348 351 352 353 353 353 354 354 355 354 354 354 353 353 353 353 352 351 353 354 354 354 354 354 354 354 353 352 351 351 352 352 351 351 350 349 348 347 347 348 347 347 348 347 346 346 345 343 342 338 335 341 348 350 351 352 352 353 353 353 353 353 354 353 353 353 353 353 354 355 356 356 358 357 356 355 351 347 347 343
317 320 324 324 327 328 328 329 327 324 324 328 329 322 323 333 340 345 350 353 354 353 354 354 354 355 354 354 354 353 353 352 352 352 352 353 355 354 354 354 354 354 354 354 353 352 352 352 351 351 351 350 350 349 348 349 350 349 350 351 351 350 350 350 348 345 343 338 342 350 351 351 352 352 352 353 353 353 353 354 353 353 353 353 353 353 354 356 356 357 357 356 355 353 348 347 345
314 319 323 324 327 328 328 329 325 320 321 327 328 322 321 327 334 344 351 354 355 354 354 353 354 354 353 354 353 353 352 352 352 352 351 353 354 355 355 355 355 354 355 354 354 353 352 352 352 351 351 351 351 350 349 350 351 350 351 351 352 352 352 352 346 344 347 343 342 350 351 350 352 352 352 353 353 353 353 353 353 353 352 352 352 352 353 355 356 357 357 356 356 354 350 347 346
314 321 324 324 326 327 329 328 324 323 323 326 327 324 320 320 328 341 349 353 356 356 355 354 354 354 353 353 352 353 352 351 352 352 351 352 354 355 355 355 355 354 354 354 354 354 353 353 352 352 352 352 351 350 350 351 351 352 352 352 353 353 352 351 345 343 348 344 341 348 351 351 352 352 353 353 353 353 352 353 352 353 352 351 350 349 352 355 356 356 356 356 355 355 352 349 347
319 324 325 325 327 328 329 328 325 324 324 322 324 324 321 319 325 337 345 349 354 358 357 355 354 354 353 352 352 352 352 351 351 351 351 352 354 355 355 355 355 354 354 354 354 354 354 354 353 352 352 352 352 351 350 350 350 351 352 353 354 353 352 352 348 345 348 347 345 349 350 351 352 353 353 353 353 353 353 353 352 353 352 350 348 348 351 353 354 355 355 355 355 355 354 350 350
321 325 326 326 328 329 330 329 325 324 324 322 322 322 321 320 322 329 338 342 348 355 357 355 354 354 353 353 351 351 351 351 351 350 351 353 354 354 354 355 354 354 355 354 354 354 354 354 353 353 353 353 353 351 350 350 350 351 352 353 354 354 353 353 352 350 350 349 350 351 351 352 352 353 354 353 353 353 353 353 353 352 353 351 349 349 349 351 353 354 354 355 355 356 355 352 351
323 325 326 326 328 329 329 327 324 323 324 323 321 321 321 321 321 325 333 339 344 350 353 354 355 353 354 353 351 351 351 351 351 350 350 352 354 354 354 354 355 354 354 355 355 354 354 355 355 354 354 354 354 352 351 351 351 352 352 353 353 354 354 354 353 353 352 350 352 353 352 352 353 353 354 353 353 353 353 353 353 353 353 352 351 349 347 349 353 354 353 355 355 356 356 355 353
323 324 324 323 323 324 324 323 323 324 324 322 321 322 320 319 322 327 334 338 340 343 347 352 354 353 354 353 351 351 350 351 350 350 350 351 352 353 354 354 354 355 354 355 355 354 355 355 355 355 354 355 355 353 352 352 353 353 353 352 352 354 355 354 354 354 353 350 351 353 353 353 353 353 353 354 353 353 353 353 353 353 353 352 352 351 349 349 351 352 352 354 355 355 355 355 354
323 322 321 320 321 323 323 322 322 322 322 321 322 322 320 320 324 330 334 334 336 339 341 346 350 352 353 352 352 351 350 350 350 350 350 350 351 353 354 354 354 355 355 355 355 354 355 355 356 356 356 355 355 354 354 353 354 353 353 353 353 354 354 354 354 354 352 350 351 353 353 352 353 353 353 354 353 353 353 353 353 353 353 352 352 351 351 349 348 348 349 351 353 353 355 356 355
322 320 318 319 321 323 324 322 322 321 319 319 321 322 319 319 325 331 332 330 332 336 338 342 346 350 352 352 352 350 350 350 350 350 350 350 351 352 354 354 355 355 355 355 355 355 356 356 356 356 357 356 355 355 355 354 354 353 353 353 353 354 354 353 353 354 354 351 350 351 350 351 352 352 353 353 352 352 352 352 353 352 352 351 351 351 351 350 349 348 348 349 351 351 353 356 355
325 324 322 319 319 321 322 321 320 320 318 318 320 321 319 318 325 331 331 330 331 332 335 341 344 348 350 351 351 350 350 350 350 350 350 350 351 352 353 354 355 354 354 354 355 356 356 356 356 356 357 357 356 356 356 355 355 354 353 354 354 354 353 353 353 353 353 352 351 350 349 350 350 351 351 351 351 352 352 352 352 352 351 350 351 351 351 351 350 351 351 350 350 351 354 356 355
325 327 324 320 320 321 320 318 319 318 316 317 318 319 321 323 328 330 328 330 331 330 332 337 342 345 346 348 350 350 350 350 349 350 350 350 351 352 353 352 354 354 354 354 355 356 357 357 357 357 357 357 357 356 356 356 356 355 355 354 354 354 353 353 353 352 352 352 350 350 349 348 349 349 349 350 351 352 351 352 352 352 351 350 350 350 351 351 350 352 353 352 351 352 355 358 357
324 324 321 324 326 324 318 317 320 318 316 318 317 317 320 322 326 329 328 328 329 331 332 332 337 343 346 347 348 349 350 349 349 350 350 350 350 352 352 352 353 353 353 354 355 356 357 357 357 357 357 357 357 357 357 356 356 356 355 355 355 354 353 353 353 352 352 352 351 350 350 349 348 349 349 350 351 351 351 351 351 352 351 350 351 350 351 351 350 352 354 352 350 350 354 358 358
323 321 322 326 328 326 321 319 321 319 317 318 315 314 315 316 321 329 331 329 328 330 331 331 335 341 344 345 347 349 350 350 350 350 351 350 350 351 351 351 352 352 353 354 355 356 356 357 357 357 358 358 357 357 357 357 357 357 356 355 355 354 354 353 353 353 353 354 352 351 351 351 349 349 350 351 352 352 352 351 351 352 351 350 350 350 351 351 351 353 355 355 351 348 352 357 359
324 323 326 326 323 322 322 321 322 320 319 319 316 314 314 314 318 325 329 331 330 330 332 332 334 339 342 343 346 349 349 350 350 350 350 350 350 351 351 350 351 352 352 354 355 355 355 356 356 356 357 358 357 357 357 357 357 357 357 356 355 355 354 354 354 354 354 353 352 352 352 351 350 350 351 351 352 352 352 351 351 352 352 351 350 350 351 351 351 354 357 358 355 350 351 354 357
325 325 327 326 322 322 322 322 321 320 321 320 318 315 314 316 322 324 328 332 331 332 335 335 334 338 341 342 345 348 349 350 351 349 350 349 349 350 351 350 350 351 352 353 354 354 355 355 356 356 357 357 357 357 357 357 357 357 357 357 356 355 355 355 355 354 354 353 353 352 352 352 352 351 351 351 351 352 352 351 352 353 353 352 351 350 351 352 353 356 358 359 357 354 352 352 354
322 322 323 324 323 323 324 323 320 319 320 320 320 317 314 319 328 327 328 332 332 333 337 338 335 336 340 343 345 347 349 350 350 349 349 349 349 350 350 350 350 350 351 352 352 353 354 354 355 356 356 357 357 357 357 357 357 357 358 357 357 356 355 355 355 355 354 353 353 353 352 353 352 351 351 351 351 351 351 351 352 353 352 351 351 350 351 353 353 355 357 358 359 358 357 355 354
318 319 320 320 321 321 322 322 320 319 319 319 320 318 316 322 331 329 326 330 332 333 335 337 336 335 338 343 345 347 349 349 349 349 348 348 349 350 350 350 350 350 351 351 352 353 353 354 355 355 356 356 356 357 357 358 357 357 357 356 356 356 356 356 356 355 355 354 354 353 352 353 352 351 351 351 351 351 350 351 351 352 351 350 350 349 350 352 352 353 356 358 358 358 358 358 357
Wind_Speed
13 13 14 13 12 9 4 2 1 1 1 2 2 2 2 3 2 3 6 6 5 5 6 9 13 9 5 4 6 6 5 5 2 1 3 4 15 24 21 22 27 24 21 20 18 17 18 17 16 16 16 15 15 16 16 16 16 16 16 16 15 16 16 15 15 15 15 15 14 13 14 14 12 12 14 13 13 13 13 13 12 12 12 12 11 11 12 11 10 11 11 12 12 13 14 14 14
14 14 15 14 12 6 2 1 1 1 2 2 2 2 1 3 4 4 7 7 5 7 9 12 13 7 5 6 7 6 6 5 4 3 4 12 21 19 22 26 26 25 22 20 18 17 17 17 16 16 16 15 15 16 16 16 16 16 15 15 15 15 15 15 15 15 15 15 14 13 14 14 12 12 13 13 13 13 13 13 12 11 11 11 11 12 11 10 10 12 12 13 13 13 13 13 13
16 15 16 15 8 1 1 0 1 1 2 2 1 2 2 4 5 5 7 6 8 11 12 13 11 6 7 9 5 4 4 4 6 8 8 19 19 16 24 26 25 26 22 19 18 17 17 17 17 16 16 16 15 15 15 15 16 15 15 15 15 15 15 15 14 15 15 14 14 14 14 14 13 12 13 12 13 12 13 13 12 12 11 11 11 11 10 10 11 11 12 13 13 13 13 13 12
15 14 15 12 3 1 1 1 2 2 2 1 1 3 3 3 5 7 6 7 11 13 13 13 8 3 3 8 4 3 5 4 8 10 12 17 16 20 25 24 25 24 21 18 18 18 16 17 17 16 16 15 15 15 15 15 15 15 15 15 15 15 15 14 14 14 14 13 13 13 13 13 13 12 12 12 12 12 12 11 11 12 11 11 11 11 10 10 11 11 12 13 13 13 13 12 12
14 13 13 7 1 1 2 2 1 2 1 0 1 3 4 3 7 8 8 10 12 13 13 10 6 3 3 5 1 2 6 6 9 12 15 17 18 24 24 23 25 23 20 18 20 18 16 18 17 16 15 15 14 14 14 15 15 15 15 15 15 15 14 14 14 13 13 13 13 13 12 12 12 12 12 12 11 11 11 10 10 10 11 11 11 11 10 10 11 12 12 13 13 12 12 11 11
14 12 9 5 2 1 2 2 1 2 2 1 1 2 5 6 9 10 11 12 11 11 11 7 7 7 5 5 4 3 5 6 10 14 17 20 23 25 24 23 23 22 20 19 21 18 17 18 17 16 15 14 14 14 14 14 15 15 14 15 15 14 13 13 13 13 13 12 12 13 12 11 11 12 11 11 11 11 10 9 10 10 10 10 10 11 10 11 11 12 12 12 12 11 11 10 11
15 9 4 5 2 2 2 2 2 2 0 2 2 2 7 8 10 12 14 13 10 10 7 7 9 9 6 3 4 5 2 4 11 14 18 23 26 26 24 23 21 21 20 19 20 19 18 17 16 16 14 14 14 14 14 14 15 15 14 14 15 14 13 13 13 13 13 13 12 12 12 11 11 11 11 11 11 11 10 9 10 9 9 10 10 11 11 12 12 12 12 12 11 11 10 10 11
12 5 1 3 1 2 2 3 2 1 1 0 1 3 8 10 11 12 14 12 11 10 7 9 9 6 5 3 4 5 3 6 12 17 21 26 27 26 24 24 22 21 20 19 19 19 19 17 16 15 14 14 14 14 13 14 15 14 14 14 14 13 13 13 14 13 13 12 12 12 12 11 10 11 11 11 11 10 10 9 10 9 9 10 10 11 11 12 12 12 12 11 11 11 12 11 10
8 2 1 2 1 1 2 3 2 2 2 1 1 6 9 10 11 12 13 12 11 11 11 11 6 4 7 6 5 4 5 10 17 22 25 27 27 26 24 23 23 22 21 19 19 20 19 17 16 15 14 13 14 14 13 14 14 13 14 14 14 14 13 14 14 13 13 12 12 13 12 12 12 12 11 11 10 10 10 10 10 9 9 10 10 11 11 11 11 12 12 11 10 11 12 11 9
5 2 1 1 1 1 2 1 1 1 1 1 4 9 10 10 11 11 12 12 12 12 11 9 4 7 9 7 6 4 7 15 21 23 25 27 26 25 24 22 21 22 21 19 19 19 18 17 16 16 14 13 14 14 13 13 13 13 14 15 14 14 14 14 14 13 13 12 13 13 13 13 12 12 12 11 11 11 11 10 10 10 10 10 10 10 11 11 11 11 11 10 10 10 11 10 9
4 2 2 2 1 2 1 0 1 1 2 3 6 8 8 10 11 10 9 10 11 11 11 8 7 10 10 7 4 5 12 19 22 25 26 26 25 24 23 21 21 21 21 19 18 19 18 17 17 16 14 13 14 13 13 13 13 13 14 14 14 14 14 14 14 13 13 13 14 14 14 14 13 13 13 12 12 12 12 11 10 11 11 10 10 10 10 10 10 11 11 10 9 10 11 10 9
2 2 2 2 2 2 2 2 2 2 3 5 8 7 7 10 10 10 10 10 10 11 10 8 8 9 8 6 4 8 16 19 22 26 27 25 24 23 23 21 21 20 20 19 18 19 18 17 17 16 14 13 13 12 12 12 13 14 14 14 14 14 14 14 14 14 14 14 15 15 15 15 14 13 13 12 13 13 12 12 11 11 12 10 10 10 9 10 10 10 10 10 10 10 10 9 9
2 2 1 1 2 3 3 3 1 2 3 5 7 7 8 10 9 10 10 10 11 11 9 8 10 7 6 6 6 10 15 20 24 26 26 24 23 22 22 21 21 20 19 19 17 18 18 17 16 15 14 13 12 12 11 12 13 14 15 16 15 15 15 15 15 14 14 15 15 15 15 14 14 13 13 13 13 12 11 11 11 11 11 10 10 10 9 10 10 10 9 9 10 10 9 8 9
3 2 1 1 2 3 4 2 1 3 4 5 7 7 8 7 7 10 9 11 10 8 8 9 11 8 6 7 7 8 14 22 26 26 25 22 22 21 22 21 20 20 18 18 16 17 18 16 16 15 14 13 12 11 10 12 13 15 16 16 16 15 15 14 14 14 13 13 13 13 13 12 12 11 11 12 11 11 10 10 10 10 10 9 9 9 9 10 10 9 9 8 8 9 9 9 9
3 1 1 2 3 3 3 2 2 3 4 7 8 9 9 3 6 9 8 10 7 6 9 9 8 4 7 9 8 10 18 26 27 26 24 22 22 21 21 21 20 19 18 17 15 16 17 16 16 15 15 13 12 12 11 12 13 14 15 16 15 15 14 13 12 12 11 11 11 11 11 11 11 11 10 10 10 10 9 9 10 9 9 9 8 9 9 9 9 9 8 7 7 7 8 9 9
3 2 1 2 3 2 2 2 2 2 3 7 9 10 9 4 6 7 5 6 8 8 8 7 6 1 7 11 11 18 25 29 28 26 25 23 22 21 21 21 20 19 17 16 15 17 17 16 16 15 15 14 13 12 12 12 12 13 14 14 13 13 12 12 11 11 11 10 10 10 11 11 11 10 10 10 10 9 9 9 9 8 9 9 8 9 9 9 9 8 7 6 7 6 7 8 9
2 2 3 2 3 2 1 3 2 1 4 9 11 12 10 7 6 4 4 7 10 10 6 5 4 2 5 10 18 28 29 30 30 27 26 24 24 23 22 21 20 19 17 17 16 18 18 16 16 15 15 14 13 13 12 12 12 12 12 12 12 12 12 11 11 10 10 10 9 9 10 10 10 10 10 10 9 9 9 9 8 8 8 8 8 8 8 8 8 7 7 7 6 6 6 7 8
3 3 3 4 3 2 1 1 1 2 3 10 12 13 11 10 9 6 7 8 10 10 6 7 6 7 10 16 25 31 31 31 30 29 27 25 24 23 22 21 21 19 18 19 17 18 18 16 16 15 15 14 13 13 12 12 12 11 11 11 11 11 11 11 10 9 9 9 9 9 9 9 9 9 9 8 8 8 8 8 8 7 8 8 8 8 8 7 7 7 7 6 6 6 7 7 7
5 3 4 4 3 1 1 2 3 3 1 8 11 12 11 11 11 9 9 10 12 10 7 8 10 11 14 21 28 30 31 32 30 30 28 26 25 24 24 22 21 20 19 19 19 18 17 17 16 15 15 14 14 13 12 12 12 11 11 11 10 10 10 10 9 8 8 8 8 8 8 8 8 8 8 8 7 7 7 8 8 7 7 7 7 7 7 6 6 6 6 6 6 7 6 7 7
6 5 5 4 3 3 3 4 5 4 2 8 11 10 9 10 11 9 9 12 12 10 9 10 11 13 16 21 27 30 30 30 30 29 27 26 25 25 25 24 23 21 20 19 19 18 17 17 17 16 15 15 14 13 12 12 12 11 11 10 10 9 9 9 8 8 7 7 7 7 7 7 7 7 6 7 6 6 6 7 7 7 6 6 6 6 6 6 5 5 5 5 5 6 6 6 6
5 6 6 1 1 3 1 2 4 3 5 8 11 10 9 10 9 9 11 11 9 11 12 13 15 18 19 21 25 30 30 29 29 28 27 26 25 25 24 23 23 21 20 19 18 18 17 17 17 16 16 15 14 14 12 12 12 11 11 10 10 10 9 9 8 8 7 6 6 6 6 6 6 6 6 5 5 5 6 6 6 6 5 5 6 6 5 4 4 4 4 4 4 4 4 4 4
4 7 8 5 3 3 1 3 7 4 2 6 10 10 9 9 9 10 14 11 6 9 13 14 17 20 22 24 25 27 28 28 29 28 27 27 26 25 24 23 22 21 20 19 18 18 18 17 17 17 17 17 15 14 13 12 13 12 11 11 10 10 9 9 8 8 7 6 6 6 5 5 6 5 5 5 5 5 5 5 5 5 5 4 5 5 3 2 3 2 3 3 3 3 3 3 4
6 7 8 8 7 7 5 4 6 4 1 6 9 8 8 10 9 10 15 9 2 6 13 15 18 21 25 26 26 25 25 25 27 28 28 28 27 26 25 24 23 23 21 20 19 18 19 18 17 17 17 17 16 14 13 12 12 11 10 11 10 9 9 9 8 8 8 7 6 5 5 4 4 4 4 4 4 5 4 4 4 4 4 3 5 4 1 1 2 2 2 2 2 2 2 3 3
9 8 7 8 8 9 9 8 7 4 4 6 7 6 9 13 8 9 14 6 6 10 15 17 18 22 24 24 24 24 25 25 27 28 26 26 26 25 24 24 23 23 22 21 20 19 19 19 18 17 16 16 15 14 12 11 11 10 9 10 9 9 9 8 8 8 7 7 6 5 5 4 3 3 4 4 4 4 4 4 3 3 3 2 3 2 2 2 3 3 3 2 2 2 2 3 3
12 11 7 6 7 8 8 7 7 5 4 4 8 8 10 12 6 7 13 6 9 14 16 18 19 20 21 21 22 22 23 25 27 26 25 24 23 23 23 23 23 23 23 23 21 20 20 19 19 18 17 16 15 14 13 11 10 10 9 9 8 8 8 7 8 8 7 6 6 5 5 3 3 3 3 3 4 4 3 3 3 2 1 1 2 1 3 3 3 3 3 2 2 2 2 2 2
10 13 8 7 8 8 8 9 9 7 4 5 9 10 10 10 5 5 11 9 11 16 17 19 19 19 19 19 21 21 22 24 27 27 25 24 24 24 23 22 23 22 23 23 21 21 20 20 20 19 18 16 15 14 14 12 11 10 9 9 8 8 8 8 8 8 7 6 6 6 5 4 3 3 3 3 4 4 3 3 2 1 0 0 1 1 3 2 2 2 2 3 3 2 2 1 1
4 9 10 11 12 12 11 11 11 9 5 7 10 10 10 10 7 6 9 12 14 17 17 19 19 19 19 18 18 19 21 24 27 27 25 24 24 24 23 23 22 22 23 23 22 21 21 21 20 20 19 16 15 15 14 13 11 11 10 9 9 8 8 7 8 8 8 8 7 7 6 5 4 4 3 3 3 3 3 2 1 1 0 1 0 1 2 3 2 3 3 3 2 1 1 1 1
4 5 7 10 11 11 11 11 11 8 5 9 11 9 8 10 10 9 10 15 16 17 18 19 19 17 18 18 17 16 18 22 25 26 25 26 25 25 25 24 23 23 23 24 22 21 21 21 21 20 20 17 16 15 14 13 12 11 10 10 10 9 8 8 8 9 10 10 9 8 6 6 5 4 4 3 3 2 2 2 1 2 1 1 1 1 2 3 3 3 3 3 1 1 1 1 1
7 6 7 8 9 11 11 10 10 6 5 7 9 6 6 11 14 11 12 16 16 17 17 18 17 16 16 17 15 14 16 21 22 24 26 26 25 25 26 25 25 24 23 24 23 22 22 21 21 20 21 21 18 17 16 14 12 12 11 11 11 10 9 10 11 12 12 11 10 9 7 6 6 5 4 4 3 3 3 2 2 2 2 2 2 3 3 3 4 3 2 2 1 1 1 1 1
7 6 7 7 7 8 6 8 10 9 6 7 9 4 5 12 15 11 14 17 17 16 16 16 15 14 15 15 14 14 17 20 21 23 25 24 24 25 25 25 25 23 21 23 23 23 22 21 21 20 21 23 21 19 17 15 14 12 12 12 12 12 13 13 14 14 13 12 11 10 8 7 6 6 5 4 4 3 3 3 3 3 3 3 3 5 5 3 3 3 2 2 2 1 0 1 1
6 5 5 5 5 4 1 3 8 9 6 10 11 6 5 9 12 13 15 18 18 16 16 16 15 14 14 15 15 15 17 20 23 24 25 24 23 23 24 25 25 23 21 24 25 24 23 21 21 20 21 23 24 24 19 18 18 15 13 13 12 14 16 16 15 14 13 12 11 10 9 8 8 7 6 5 5 4 4 4 4 4 4 4 4 5 6 4 4 3 2 2 2 1 0 1 1
5 4 5 6 6 5 2 3 7 7 4 12 12 5 5 6 9 15 15 18 19 16 17 16 16 16 16 15 15 15 16 20 24 24 24 25 23 23 24 25 26 25 23 25 25 25 24 22 21 20 22 24 27 26 23 21 22 20 18 15 14 15 17 17 16 15 13 12 11 10 10 9 9 8 7 6 6 5 5 5 5 5 4 4 5 5 4 4 3 3 2 1 2 2 1 1 1
5 6 6 6 7 7 4 3 8 9 5 11 13 6 5 3 7 15 16 19 19 16 16 17 17 17 16 15 14 15 15 17 21 23 25 25 24 23 24 25 26 26 25 25 25 26 25 23 22 20 22 26 26 26 26 24 24 25 23 19 16 17 18 18 16 15 14 13 12 11 11 10 10 9 8 7 7 6 6 6 5 5 4 4 5 5 3 4 3 2 1 1 2 2 2 1 2
6 6 6 5 6 7 5 2 5 10 8 10 13 11 8 2 7 14 17 19 19 16 17 18 17 16 16 14 14 15 15 16 18 22 26 26 24 24 23 24 26 25 24 26 26 27 26 24 24 22 22 24 24 25 26 24 25 27 26 24 21 20 20 19 17 16 15 14 13 13 12 11 10 9 9 8 7 7 6 6 5 5 5 5 5 5 4 4 4 2 1 1 2 2 3 3 2
7 7 6 5 6 7 7 3 2 6 9 10 12 13 12 6 6 12 17 19 19 17 17 17 17 16 16 15 15 16 16 17 19 24 28 26 25 25 24 24 25 25 24 25 26 27 26 24 24 23 22 23 22 22 20 21 26 28 26 26 24 22 22 20 19 18 17 16 15 14 13 11 10 9 9 9 8 8 6 6 6 5 6 5 5 5 5 6 5 3 1 2 3 3 3 3 3
5 8 6 6 7 7 6 5 1 2 5 9 11 12 12 9 8 11 15 18 18 17 15 14 14 15 15 14 14 16 17 18 20 26 28 27 26 25 24 24 24 25 24 25 25 26 27 26 24 23 23 23 22 19 17 18 23 24 23 23 23 24 24 22 22 20 18 17 16 15 14 12 11 10 10 11 10 8 6 6 6 6 6 6 5 5 4 5 5 3 2 2 3 3 3 3 4
2 6 7 7 8 8 5 4 3 2 4 7 9 12 14 12 10 12 14 16 16 15 15 14 14 14 15 16 16 17 17 16 19 24 27 27 26 26 25 24 24 25 24 25 26 27 29 28 26 25 24 23 23 22 20 21 22 22 21 21 21 22 23 24 23 22 19 18 18 17 15 13 12 11 11 12 11 9 8 7 7 7 6 6 6 5 5 5 4 3 3 2 3 3 3 3 3
5 3 5 6 8 7 5 4 4 3 4 6 7 10 13 13 12 11 12 15 16 16 16 16 17 16 15 17 18 17 15 13 16 20 24 27 26 26 26 24 25 26 26 27 27 28 28 28 28 27 26 25 25 26 26 25 26 27 25 24 23 20 22 24 22 22 21 19 19 18 16 15 13 12 12 13 12 11 9 9 8 8 7 6 6 6 5 5 4 4 3 3 3 3 3 3 3
10 5 4 5 4 4 6 5 4 4 4 5 6 9 11 11 12 11 13 15 16 17 19 18 20 19 16 17 18 16 15 15 17 19 23 27 27 27 26 25 26 27 27 27 28 28 27 28 28 28 28 27 27 30 32 31 31 32 29 27 26 20 21 23 21 21 22 20 19 19 18 16 14 13 12 13 13 12 11 10 9 9 9 7 6 6 6 5 4 4 3 3 3 3 3 3 3
11 8 6 6 3 2 5 3 1 3 5 6 6 7 8 8 8 10 14 16 13 15 18 17 18 19 18 18 17 17 19 19 19 20 22 25 28 28 27 26 27 26 26 27 28 28 28 29 29 29 30 30 31 33 36 35 33 32 30 27 26 22 19 21 21 22 22 21 21 20 19 17 15 14 13 13 13 13 13 12 11 11 10 9 7 7 6 6 5 4 4 4 3 3 3 2 3
12 13 11 8 4 5 5 2 6 6 5 6 6 7 7 7 8 9 12 14 12 12 14 14 14 14 14 14 16 17 19 19 20 21 21 23 27 29 28 28 27 27 27 28 29 29 29 29 31 32 32 33 34 35 36 34 30 29 27 22 19 17 15 15 16 18 21 23 22 21 21 19 17 15 14 13 13 14 14 14 13 11 11 11 9 8 7 6 6 5 5 6 5 4 4 3 4
10 14 15 11 7 7 8 7 7 6 4 3 3 7 7 5 9 11 9 11 13 12 14 16 14 13 13 14 16 17 17 17 18 20 20 22 25 28 29 29 28 29 29 29 29 29 29 29 32 33 32 33 33 34 35 31 28 28 24 20 17 16 14 14 18 19 21 24 22 19 21 21 18 16 15 13 13 14 14 14 13 12 12 12 11 10 9 8 7 6 6 6 6 6 5 4 4
8 10 13 14 10 9 10 9 6 5 4 1 2 7 6 3 7 10 10 13 16 14 15 17 15 14 15 15 15 16 17 17 16 18 19 21 25 27 28 30 31 30 29 28 28 29 29 28 31 34 32 32 32 33 33 29 27 27 25 23 21 19 18 18 23 23 20 23 23 20 21 22 19 18 16 15 14 14 14 14 14 13 12 12 12 12 11 10 8 6 6 6 5 6 6 6 5
7 6 11 14 13 12 12 10 7 6 6 7 7 6 5 6 5 6 10 13 15 15 16 17 15 16 18 17 17 17 18 18 17 18 20 21 25 28 29 31 32 31 28 28 28 29 29 29 32 34 32 31 32 33 33 32 30 27 26 25 21 21 21 20 24 24 20 23 24 22 22 22 20 19 18 17 15 15 15 14 14 13 13 13 13 13 13 11 9 7 7 6 5 5 7 7 6
7 7 10 11 13 14 12 9 8 6 6 9 8 4 4 8 4 3 8 13 13 15 18 17 16 18 19 18 19 19 19 19 18 19 20 21 25 30 32 32 32 31 29 29 29 28 29 30 32 33 32 31 32 34 35 35 34 31 28 25 22 22 22 20 22 23 21 22 23 23 23 22 21 19 19 19 17 17 16 15 15 15 14 13 13 13 14 13 11 9 8 7 6 6 7 9 8
5 8 9 10 11 11 11 9 8 7 7 11 10 7 6 9 6 5 7 9 12 13 15 16 17 18 19 18 19 19 17 17 18 19 20 22 27 30 31 30 31 31 30 29 29 28 28 29 30 32 33 31 31 35 36 35 36 33 29 26 24 23 21 18 18 19 21 22 21 21 23 23 22 21 20 20 20 19 18 17 17 16 15 14 14 13 14 14 13 11 9 8 7 7 7 8 10
7 9 9 8 9 8 8 7 5 7 9 12 13 11 8 9 8 8 7 7 10 11 11 13 16 17 17 17 17 17 17 16 17 18 19 22 27 28 28 29 30 31 30 29 29 29 29 29 30 32 32 30 30 34 36 35 35 33 31 30 28 25 22 20 19 18 20 22 21 21 23 23 23 23 22 22 22 21 20 19 19 18 17 16 15 14 15 15 14 12 11 9 8 8 7 8 10
10 9 8 6 5 5 6 5 5 9 10 9 13 12 10 11 8 7 7 8 10 11 11 12 16 17 17 16 16 17 18 17 17 17 17 19 22 25 27 28 29 31 30 30 30 29 29 29 30 31 31 31 31 33 35 35 33 32 32 33 32 27 23 23 22 21 23 25 24 22 23 24 24 25 25 24 23 23 22 20 20 20 20 19 17 15 15 14 14 14 13 10 9 9 8 8 9
11 10 9 8 5 6 8 7 7 11 8 4 8 10 11 12 10 6 7 9 11 11 11 12 15 17 16 17 17 17 16 17 17 16 17 18 18 20 26 29 29 30 30 30 31 30 29 29 31 31 32 33 33 32 34 34 32 33 33 33 32 29 26 26 25 24 26 29 27 24 24 25 25 26 27 27 25 24 24 22 21 21 20 19 18 16 15 14 15 16 15 13 11 10 10 9 10
12 11 10 9 7 7 9 9 7 9 6 4 6 6 8 9 7 9 13 14 13 11 11 12 13 15 16 17 17 16 17 17 16 16 17 17 17 20 26 30 30 30 31 32 32 31 30 29 32 32 32 34 34 33 34 34 34 35 36 34 32 30 29 28 27 25 26 29 29 28 28 27 27 28 28 28 27 26 26 24 22 21 20 19 18 17 16 14 14 15 16 16 14 12 11 10 10
11 12 11 10 9 8 8 7 7 7 4 6 9 6 7 5 2 5 11 15 13 12 13 12 11 13 13 13 15 16 17 17 16 16 18 18 19 22 26 28 29 31 33 34 33 32 31 30 32 33 32 33 34 34 34 34 34 35 36 35 32 30 30 28 28 27 26 28 30 29 30 29 28 29 29 29 28 26 26 25 23 22 21 20 19 18 18 16 15 14 14 15 15 14 12 11 11
10 11 11 11 9 7 5 4 5 5 5 6 9 5 4 1 4 4 6 9 10 13 15 15 14 13 11 11 13 15 16 17 17 17 19 19 20 23 25 27 29 31 33 34 34 33 32 31 32 35 34 33 35 35 35 35 35 34 34 34 32 30 31 28 27 29 29 30 31 31 31 31 30 29 29 29 28 27 26 26 25 23 22 21 20 19 19 17 16 14 12 13 14 14 12 11 12
7 10 12 9 9 9 7 5 2 3 8 6 7 9 5 2 9 10 8 7 8 11 14 16 16 13 12 11 13 15 16 17 18 18 19 19 20 24 27 28 29 31 33 34 34 34 35 33 33 35 33 33 35 36 35 35 35 33 33 35 33 31 32 29 28 31 30 28 30 32 31 31 31 30 29 28 28 27 26 26 26 24 23 23 21 20 20 19 17 15 13 14 15 16 13 11 11
5 9 10 8 8 10 8 6 5 6 9 5 6 12 10 6 7 9 13 13 10 10 12 14 14 12 13 13 13 15 17 18 20 20 19 19 19 23 28 30 31 33 34 34 34 34 35 34 35 36 35 34 35 36 35 35 35 34 33 35 34 32 32 30 28 29 27 26 29 31 30 30 31 30 29 28 27 27 27 26 26 25 24 24 22 22 21 20 19 16 13 13 15 17 15 12 11
7 6 9 9 8 10 8 7 7 9 9 5 7 11 11 10 7 5 12 16 14 11 10 12 13 12 13 14 14 16 16 16 18 18 17 17 18 22 28 31 32 33 33 33 34 35 35 35 35 36 36 36 36 35 34 35 35 34 32 34 35 33 32 30 27 26 27 28 29 29 30 30 31 30 29 29 27 27 27 27 27 26 26 25 24 23 22 22 20 16 12 12 14 16 17 15 13
7 4 9 9 6 7 9 8 6 7 8 6 7 9 9 8 8 8 10 12 14 13 10 10 12 13 14 14 13 14 15 15 16 16 17 19 20 24 31 34 34 34 33 32 34 35 35 35 34 35 35 34 35 35 34 35 35 32 31 33 35 35 34 32 29 28 30 31 30 30 30 29 30 31 29 28 28 27 27 27 27 26 26 26 26 25 23 22 20 15 12 12 13 14 16 18 17
6 6 9 10 6 4 7 9 7 7 7 6 6 8 7 4 5 10 11 9 11 12 10 9 11 13 15 14 13 14 14 15 16 16 18 20 21 25 31 33 33 32 31 32 34 34 35 35 35 35 35 34 35 34 33 35 34 32 32 34 35 35 35 32 29 29 30 30 30 31 30 28 29 31 30 29 28 28 28 27 26 26 26 26 26 26 25 22 20 16 13 12 12 12 13 15 17
3 4 4 4 5 6 8 10 10 9 8 6 6 8 7 2 3 7 11 10 10 11 12 11 10 12 14 13 14 15 14 15 17 17 19 19 19 22 27 29 30 30 31 34 35 34 35 36 35 36 35 35 36 35 33 34 33 32 34 35 34 34 34 32 28 28 29 29 29 31 31 29 29 30 30 30 29 28 29 28 27 26 26 27 26 26 26 24 23 21 17 14 13 13 13 14 15
Wind_Direction
147 156 156 154 148 144 152 204 200 159 244 283 252 240 218 182 156 140 137 147 145 146 139 126 136 134 130 150 140 78 49 136 128 125 115 95 137 144 149 151 152 149 144 141 138 135 135 139 137 135 133 129 127 125 125 124 122 121 120 118 117 117 117 117 118 119 119 119 121 120 117 115 117 119 118 118 118 117 117 116 112 108 105 103 100 96 94 96 95 92 100 107 111 112 110 109 108
153 158 156 152 148 146 137 245 257 157 205 253 248 221 143 159 186 169 156 159 142 143 142 136 137 127 111 119 124 100 66 48 44 88 89 129 136 139 151 152 152 151 146 142 140 138 138 140 138 136 133 130 129 128 128 126 124 122 120 117 116 117 116 117 117 117 115 116 116 114 112 113 118 121 121 118 116 117 118 117 114 111 107 104 99 97 98 97 93 92 95 102 107 109 107 105 102
157 154 153 152 151 186 75 191 264 201 216 235 211 171 148 166 182 164 160 147 129 140 142 140 130 109 123 130 128 113 93 58 104 111 120 140 139 147 154 152 153 151 148 144 141 139 140 142 140 138 135 133 134 132 130 129 126 123 121 118 117 117 116 116 115 113 112 113 113 111 110 112 118 120 118 115 116 118 117 118 118 115 109 104 101 97 95 91 91 94 96 99 100 100 103 101 97
157 152 154 153 148 270 154 181 252 239 240 239 143 151 173 178 156 136 140 132 134 143 143 142 122 74 131 136 119 83 105 111 131 126 139 150 147 150 152 152 152 150 148 146 143 141 142 144 141 139 137 137 138 134 132 131 128 125 123 121 120 117 115 113 112 112 112 112 111 108 108 113 118 119 115 114 115 115 115 117 118 117 112 108 103 97 93 92 91 93 94 95 94 93 95 93 92
153 152 163 168 161 204 189 217 238 246 254 312 30 144 170 158 138 127 129 135 142 147 148 146 117 87 83 94 55 95 116 117 142 144 145 151 147 147 150 150 150 150 149 147 145 143 146 146 142 140 140 140 140 136 133 131 127 124 124 124 122 118 114 113 112 112 112 112 112 111 110 113 115 113 112 111 114 116 115 116 116 116 116 113 107 101 95 91 89 91 92 91 90 90 92 90 89
148 152 179 223 284 207 231 248 245 252 267 240 285 132 152 139 133 128 130 137 143 149 151 144 122 128 102 66 40 82 117 120 148 155 149 149 148 148 149 148 148 150 149 148 148 147 148 147 143 142 143 141 137 135 132 129 126 124 124 125 123 118 115 113 113 112 111 111 112 114 113 111 110 109 111 109 110 113 111 114 117 114 113 113 107 104 98 89 87 87 87 89 92 95 98 101 98
151 150 190 246 268 219 263 290 281 277 325 214 249 134 150 139 136 135 137 143 148 153 152 140 130 123 104 101 90 75 84 131 147 155 150 147 148 148 148 147 146 149 150 150 150 149 149 147 144 145 144 140 134 132 128 128 128 125 125 125 122 118 116 116 114 111 110 110 112 115 114 110 108 107 108 109 107 108 107 110 115 115 113 111 108 106 99 92 90 86 86 88 93 97 99 101 103
163 159 198 232 238 212 279 302 293 294 17 269 322 141 153 146 146 145 146 153 157 159 152 147 146 117 97 134 119 75 76 130 141 144 145 145 147 148 149 149 146 148 151 151 150 148 150 148 146 147 145 139 134 131 128 130 128 125 126 124 123 119 118 119 115 112 110 111 114 116 114 112 112 108 103 104 107 108 107 107 109 112 112 108 107 106 100 95 95 92 89 88 90 95 97 100 108
176 209 194 223 273 242 281 286 284 270 265 309 103 135 148 153 154 151 153 157 158 160 156 156 167 132 118 117 112 96 102 128 133 137 144 147 149 148 150 151 148 149 151 151 149 148 150 150 149 147 145 141 135 131 130 130 125 125 125 123 122 120 120 118 115 113 111 110 112 112 111 111 111 109 105 105 108 108 106 105 106 110 109 106 105 104 100 95 98 98 95 92 91 92 96 104 112
177 245 266 260 262 270 279 257 273 221 157 97 130 140 148 156 155 153 154 154 159 160 151 145 128 127 130 116 106 107 126 134 134 139 147 148 150 149 150 152 150 150 150 150 148 149 151 152 152 147 146 143 134 131 132 129 126 128 125 120 119 121 120 117 115 112 110 108 106 106 105 104 103 104 103 103 104 104 103 101 103 106 107 105 103 102 101 99 100 102 101 97 92 89 92 98 103
173 203 245 283 252 262 278 311 298 116 117 124 134 144 150 153 152 151 145 147 160 156 148 146 123 123 124 112 100 116 134 140 142 146 149 150 151 150 150 151 151 151 150 151 149 149 151 155 153 146 147 144 137 135 136 135 132 129 123 120 120 121 117 113 113 111 110 106 101 99 98 98 97 99 99 98 97 97 99 100 102 103 102 102 103 104 104 104 102 102 102 97 89 83 84 87 90
202 186 199 273 277 266 279 308 304 111 132 152 149 151 154 155 154 151 145 146 157 154 159 168 146 132 121 115 115 130 141 146 147 149 150 151 151 150 150 151 152 153 152 151 149 149 151 157 153 147 149 145 142 141 139 136 131 125 120 121 120 118 114 112 112 109 108 103 99 97 96 97 96 97 97 96 92 92 94 96 98 97 97 98 102 105 105 105 101 101 101 96 89 80 79 86 88
229 213 200 283 272 276 283 298 300 144 152 163 158 156 159 164 162 158 150 146 158 160 162 159 144 131 111 116 127 139 148 150 150 150 151 152 152 149 150 152 152 152 152 151 149 151 153 156 154 149 150 147 145 144 138 131 127 126 121 119 117 115 114 112 110 107 105 101 99 99 100 101 100 98 96 93 87 87 88 91 95 92 92 94 99 103 104 104 100 98 97 94 90 84 83 84 87
217 237 270 287 268 277 273 266 193 173 157 152 154 155 166 176 167 161 151 148 158 155 140 140 142 124 107 126 139 151 153 152 152 152 152 151 151 150 151 152 152 152 151 151 151 153 156 156 155 151 151 152 148 144 140 134 131 129 124 120 118 117 115 112 110 107 105 102 99 100 103 103 102 97 94 92 89 90 87 86 89 90 90 90 95 97 97 98 97 95 93 91 87 86 87 84 83
220 257 252 276 286 274 242 226 206 187 146 151 159 159 165 165 166 167 160 151 142 128 124 139 163 141 145 161 163 162 155 154 154 152 152 150 150 151 151 152 152 153 152 152 154 156 159 158 156 154 155 157 153 148 145 141 135 130 126 123 121 119 117 113 111 108 104 103 102 102 103 103 101 97 96 95 95 94 90 83 84 89 92 90 90 90 88 89 90 91 92 90 83 82 87 94 100
226 259 255 264 270 259 204 200 198 180 141 152 160 163 158 138 169 169 156 137 120 140 141 153 188 159 161 172 159 156 155 153 153 151 150 148 149 151 151 153 154 154 154 154 158 162 164 161 160 159 159 161 159 154 149 144 136 129 126 123 121 119 118 116 114 111 108 106 107 107 102 101 98 98 98 97 97 94 91 86 86 90 93 93 90 87 86 85 86 88 88 84 81 81 81 92 104
221 239 251 247 242 260 206 195 187 110 126 150 161 171 161 142 169 154 129 135 131 151 150 140 156 66 150 155 143 149 152 152 152 151 150 150 151 154 154 156 155 155 158 160 163 166 167 165 165 163 163 165 163 159 152 146 140 132 128 125 124 123 122 122 120 118 117 114 111 107 103 101 99 98 97 96 98 95 92 89 90 92 94 96 91 87 86 84 85 86 86 85 85 83 77 79 82
210 209 234 243 231 243 239 218 346 2 147 159 168 178 168 152 162 149 139 142 137 146 135 117 98 81 116 130 138 147 152 153 155 155 155 156 157 158 159 159 160 160 164 166 166 169 170 169 169 167 167 168 166 162 156 151 146 141 137 134 132 130 130 129 128 127 123 120 115 110 108 105 102 100 98 96 95 96 96 92 92 92 90 88 86 85 83 82 82 82 80 81 84 77 73 75 69
210 209 228 234 211 200 284 310 324 326 159 162 173 182 177 161 157 159 156 150 147 144 136 125 105 105 121 133 143 148 153 156 158 160 159 161 162 163 162 163 164 163 166 170 167 169 172 172 172 171 171 171 169 166 162 158 152 148 146 144 141 138 138 136 133 132 127 121 118 116 111 107 106 100 98 97 94 97 98 96 93 88 85 83 85 87 83 81 80 80 77 77 75 70 72 72 67
208 218 236 236 242 261 271 286 286 282 228 171 175 179 182 164 156 170 163 154 164 164 153 149 137 136 140 145 149 151 157 160 161 163 163 164 165 165 164 165 166 166 168 170 167 169 174 175 175 176 176 174 172 169 167 164 158 155 153 152 149 146 145 143 139 136 132 124 120 118 115 112 111 105 102 99 96 98 92 92 90 85 84 83 86 83 77 76 74 72 63 63 64 63 67 61 59
195 211 232 240 270 261 243 345 336 287 229 184 170 173 182 168 164 175 159 155 183 189 176 166 155 149 150 153 154 156 161 162 165 166 165 166 166 166 167 166 166 166 167 168 167 170 175 176 176 179 179 177 176 174 170 168 164 162 161 160 158 156 155 153 149 145 141 134 129 126 123 122 119 117 112 104 99 95 87 85 85 85 84 83 84 72 67 75 77 72 53 51 50 53 60 51 48
215 223 240 255 278 290 325 32 22 21 208 178 169 176 174 165 178 181 171 176 196 194 183 164 152 151 154 157 157 160 164 166 168 170 168 168 168 168 168 166 165 165 166 170 170 172 176 178 178 180 181 180 181 179 174 172 170 167 168 169 166 163 165 163 161 159 156 150 147 143 135 131 125 120 110 103 99 91 85 80 82 87 86 84 79 68 72 89 83 83 70 63 45 34 38 30 29
234 236 246 253 263 277 284 317 343 1 178 180 178 179 161 168 192 191 190 197 119 149 162 150 149 153 155 157 160 164 168 170 171 172 171 170 171 170 168 166 167 167 169 172 172 174 178 179 180 181 183 183 184 184 179 176 175 173 173 174 173 172 172 171 171 172 169 165 163 158 148 139 124 112 105 101 98 89 85 85 87 93 91 87 81 74 44 50 46 41 50 57 34 11 4 5 5
233 246 257 262 266 268 279 297 307 305 237 207 184 179 178 188 197 192 201 202 102 130 143 142 146 152 155 158 164 167 169 172 173 174 174 173 173 170 168 168 168 169 170 173 174 175 179 181 182 182 184 184 185 186 183 180 181 178 177 178 179 180 179 179 181 182 179 176 173 168 157 149 128 109 109 106 103 102 100 104 106 101 93 87 82 70 309 334 3 15 17 354 336 330 335 341 346
230 243 262 269 269 270 281 293 297 294 260 215 188 196 199 196 194 196 205 190 129 136 136 141 145 150 158 163 165 167 169 173 173 174 176 176 175 171 170 171 170 171 173 174 175 177 180 182 183 184 186 186 185 186 186 185 185 183 182 182 184 186 186 189 191 190 188 187 184 177 167 163 150 125 123 125 127 127 131 129 119 106 98 87 74 28 299 327 350 6 7 338 315 306 319 325 327
225 233 253 268 272 278 285 288 288 291 267 200 195 209 206 194 199 219 207 178 138 138 141 145 150 155 162 167 168 168 170 174 175 175 177 176 176 175 175 175 173 174 175 175 176 178 180 183 186 187 187 187 185 186 188 188 187 186 185 184 186 189 191 194 196 196 198 197 194 187 181 181 175 158 147 145 146 146 154 153 143 147 148 159 78 342 301 326 340 347 352 330 318 303 307 315 323
214 229 250 262 273 278 279 281 276 283 266 209 208 221 209 189 200 222 188 163 145 142 149 152 156 162 165 169 170 170 172 174 175 174 175 176 178 179 178 178 177 176 175 177 180 180 181 184 187 188 189 188 187 188 190 190 190 190 189 188 188 189 192 194 196 202 204 201 200 196 191 188 185 182 171 160 162 165 176 179 186 197 200 281 74 33 325 325 327 332 329 317 327 322 311 325 359
250 248 266 260 270 274 267 269 266 269 253 211 213 230 210 184 206 219 168 154 153 149 154 160 163 166 167 170 170 173 175 174 174 174 176 179 181 182 181 181 179 176 178 180 181 181 183 186 187 189 191 191 190 191 191 191 193 193 192 192 192 193 193 194 200 205 205 202 200 199 197 194 192 192 182 177 180 186 208 213 227 229 250 296 353 17 309 302 301 303 306 314 339 84 58 3 17
249 264 281 275 279 277 261 252 252 242 229 203 201 230 212 198 217 209 160 156 159 155 159 165 167 167 168 170 171 175 177 175 176 179 181 181 181 183 183 183 180 178 180 181 181 183 185 186 188 189 192 195 195 194 193 193 195 195 196 196 197 196 195 199 204 206 206 204 203 201 203 200 199 203 200 199 205 217 228 231 250 255 260 272 305 307 286 284 294 301 326 355 16 56 40 359 5
235 246 263 282 284 276 250 228 229 222 217 178 178 235 220 212 220 188 154 161 162 160 165 168 169 168 170 172 173 177 178 180 183 185 185 183 183 184 183 183 181 179 178 180 182 184 185 186 189 190 194 198 199 197 196 196 196 196 197 200 200 201 202 204 205 206 206 206 208 208 208 208 206 208 210 215 220 234 239 241 255 259 262 264 286 304 303 310 317 334 11 5 353 9 323 288 341
214 220 236 258 260 249 167 192 205 201 193 170 182 250 242 221 212 175 159 165 166 168 172 171 172 171 171 174 177 180 181 185 188 188 186 185 185 185 184 183 182 181 177 179 184 185 186 187 188 190 194 198 201 202 200 200 201 199 198 201 203 205 208 209 207 207 207 207 211 214 214 214 214 213 214 221 228 238 249 255 261 265 266 269 280 296 309 329 337 347 4 342 322 317 269 281 312
195 198 214 222 234 241 230 209 199 195 174 177 192 248 256 240 198 170 165 170 172 175 175 173 176 174 174 177 178 182 184 187 191 191 189 188 186 186 186 185 184 185 182 181 184 185 187 189 189 191 195 199 203 205 205 207 208 208 207 205 205 209 211 211 210 209 209 210 213 218 219 218 218 219 219 225 233 240 249 258 262 265 268 273 276 282 302 322 331 340 352 337 315 317 314 280 304
198 214 220 202 213 236 242 217 213 212 175 179 201 242 270 254 176 168 168 175 178 177 177 178 178 176 177 179 180 183 183 186 192 195 192 189 189 188 188 187 187 188 187 184 183 186 189 191 192 192 195 200 204 207 209 210 212 215 217 216 214 214 214 215 214 212 214 215 216 219 220 219 220 223 227 231 238 246 253 258 260 262 266 269 274 281 292 300 312 328 350 347 316 319 322 307 321
196 211 223 209 212 228 232 194 205 211 195 188 206 236 257 246 154 169 173 177 181 182 181 180 180 180 180 180 181 182 184 187 192 194 192 191 190 189 189 189 189 189 189 188 187 189 190 191 194 194 197 201 203 207 209 211 214 217 221 224 225 223 221 221 220 218 219 220 220 218 217 219 222 226 233 237 241 250 257 258 255 254 257 260 268 280 286 290 315 342 322 321 307 310 318 312 310
200 194 210 215 218 229 226 206 149 184 199 202 206 228 246 234 162 174 180 180 185 188 184 181 181 181 180 182 184 184 186 190 192 192 191 190 190 189 189 189 189 191 190 190 190 191 191 191 194 197 198 200 201 205 206 210 216 218 221 226 229 230 228 227 225 224 223 225 223 218 217 219 224 230 236 240 242 250 257 256 251 247 251 257 262 271 282 296 323 344 289 283 297 305 306 285 264
196 190 214 220 217 232 231 233 270 175 207 216 213 228 241 233 197 184 184 184 190 191 182 181 183 182 183 184 187 187 190 193 191 190 189 189 190 189 189 188 189 191 191 191 190 191 194 193 194 198 200 198 198 200 200 205 212 215 218 222 226 229 231 230 229 227 227 230 226 220 220 221 226 233 239 241 240 242 250 252 247 245 248 256 258 255 263 284 308 319 274 274 297 307 296 258 230
180 187 216 227 227 238 233 235 270 261 240 230 220 231 241 238 216 194 187 187 193 192 182 182 184 184 187 188 190 191 192 193 188 188 190 190 190 189 189 189 188 190 191 191 190 192 196 196 196 197 198 197 196 196 198 201 205 208 211 215 219 224 228 230 231 229 229 232 229 223 224 226 229 236 240 240 238 237 244 248 245 244 245 251 258 257 255 265 284 301 292 285 292 302 297 258 221
247 213 214 230 229 241 258 269 286 279 262 246 229 238 243 241 228 201 184 189 195 193 187 186 187 188 191 191 193 193 189 187 185 188 191 191 191 189 188 189 189 190 190 191 192 195 197 197 198 198 198 199 200 201 202 203 207 211 212 216 218 220 225 228 229 230 230 232 231 226 227 231 233 239 240 237 236 237 243 249 250 247 247 250 257 265 270 273 287 303 291 273 278 282 282 262 213
239 238 232 239 221 253 271 265 272 264 257 256 244 248 251 245 233 206 187 195 202 197 192 189 188 189 192 193 192 189 185 184 187 189 191 192 192 190 190 192 193 192 191 193 195 195 196 197 199 200 199 199 202 206 208 209 213 216 217 219 220 219 225 228 227 229 230 232 233 230 229 232 234 239 240 237 238 240 245 250 253 252 251 254 259 266 274 275 280 286 270 259 273 271 270 261 212
230 229 231 231 200 230 239 207 356 283 251 263 264 262 263 249 228 207 199 205 207 204 201 197 192 191 192 193 190 186 185 185 187 189 190 192 193 193 192 193 194 193 192 194 195 194 196 198 199 200 201 204 206 210 213 213 216 218 218 221 223 222 226 230 230 232 232 233 234 232 231 231 234 238 239 239 242 246 250 251 254 255 253 255 260 265 270 272 273 273 260 255 258 255 255 248 223
224 226 229 228 217 230 243 299 338 306 246 242 257 265 266 240 220 216 207 208 210 207 206 205 202 198 194 193 192 191 189 188 187 189 191 192 193 194 193 193 193 194 195 195 195 195 197 199 201 203 205 208 210 211 213 212 212 214 213 215 219 219 222 224 225 228 230 231 233 233 232 230 233 237 239 242 247 251 253 252 254 256 255 255 257 261 264 265 266 265 256 254 252 251 250 243 228
225 224 226 231 234 238 259 287 308 298 235 191 232 252 255 224 220 222 199 199 210 204 203 209 204 194 194 196 196 196 195 194 191 190 190 192 193 193 193 193 193 194 197 196 195 196 198 198 201 203 205 207 209 211 212 208 206 207 203 199 200 201 205 208 213 218 223 227 227 229 231 229 231 237 239 242 248 251 253 252 254 256 255 255 255 257 258 258 260 258 256 256 250 251 251 247 234
234 215 210 222 237 241 251 264 273 271 260 347 291 252 257 242 226 220 195 197 207 203 207 212 203 195 199 200 197 195 196 196 195 193 192 192 192 193 194 194 194 196 196 195 196 197 197 197 199 202 204 206 207 209 209 205 203 203 201 200 198 198 199 206 216 219 220 225 225 225 230 229 230 235 239 241 245 248 251 251 253 256 256 255 253 253 253 254 255 252 260 262 253 251 247 244 245
236 181 179 204 222 232 241 250 249 260 288 291 268 248 266 266 236 208 200 206 207 204 211 212 203 202 205 204 201 198 196 195 193 194 193 193 193 193 195 195 196 197 195 194 194 195 196 196 199 201 203 205 205 206 207 205 203 201 201 202 202 204 206 211 219 220 220 226 227 226 230 231 231 234 237 240 241 244 248 249 250 254 255 253 252 251 248 249 254 256 261 264 255 249 242 240 248
227 160 171 195 209 223 233 244 247 257 282 270 246 210 250 258 231 167 201 213 212 209 214 211 204 206 206 205 204 200 198 196 195 195 194 194 195 195 196 195 195 195 195 194 193 194 195 196 199 201 202 203 205 207 207 207 206 205 203 202 203 209 211 212 217 218 220 225 226 226 230 231 233 234 235 238 239 241 245 247 248 250 253 254 252 249 245 244 249 255 258 261 257 251 244 241 243
197 159 184 198 205 217 223 235 245 245 248 252 240 207 232 260 236 194 196 207 211 214 218 214 208 209 207 205 205 200 198 197 198 198 196 196 197 197 196 194 194 194 195 194 192 193 193 195 197 200 201 202 203 207 208 207 208 207 205 203 204 207 207 205 208 211 216 220 221 224 229 231 232 234 235 237 238 240 244 246 247 249 251 254 254 249 246 244 247 252 254 257 259 255 250 246 245
168 164 188 193 203 212 216 226 235 241 242 242 238 215 218 261 246 208 200 204 204 208 216 213 210 214 210 207 205 200 198 198 198 198 198 198 198 198 196 194 194 193 194 192 191 193 193 193 195 197 200 200 201 206 207 207 206 206 207 207 208 207 203 201 201 204 210 214 216 220 226 229 231 233 235 237 238 239 243 246 246 249 250 252 254 252 249 245 245 250 251 253 257 258 254 250 250
177 186 193 179 186 193 208 206 199 235 242 227 226 213 210 242 242 199 192 200 203 209 213 208 209 213 211 207 203 201 200 197 195 197 197 197 197 195 195 195 194 192 192 191 191 193 193 192 193 195 197 198 200 203 205 205 204 205 208 210 210 208 203 202 202 202 208 212 214 216 222 226 229 232 234 236 238 239 242 245 246 247 248 249 251 253 253 248 245 248 250 251 253 255 254 250 251
194 198 195 193 188 179 202 201 200 231 240 201 202 199 210 242 252 231 218 218 214 214 215 210 208 211 210 207 203 201 201 196 193 195 195 194 193 192 192 193 192 191 191 191 191 193 192 191 192 193 195 198 199 200 202 203 203 206 209 209 210 208 205 206 206 206 210 214 214 214 218 223 226 229 231 234 237 238 240 244 247 247 247 248 249 251 254 253 250 249 250 251 252 253 252 249 252
200 199 196 202 195 191 206 204 210 230 232 175 169 189 227 252 256 230 230 236 227 215 222 222 211 209 208 206 203 200 198 197 194 193 195 196 192 190 192 191 189 189 191 191 192 193 192 191 191 193 195 197 198 199 201 202 204 208 210 210 209 208 207 209 209 210 212 215 216 217 221 223 225 229 231 234 236 236 238 241 246 248 247 248 249 248 251 255 255 252 251 253 254 254 251 248 253
201 200 202 210 204 211 216 204 215 234 239 181 166 185 226 224 218 206 223 237 227 212 219 221 216 214 210 203 201 199 198 197 195 193 196 198 192 189 192 192 189 190 191 192 192 191 189 189 190 192 194 195 197 199 200 201 205 208 210 210 209 208 209 210 212 213 214 217 218 219 222 224 226 231 234 236 238 238 238 240 243 247 247 248 249 248 248 253 256 252 250 251 252 253 249 247 250
201 195 206 216 207 210 220 224 226 241 261 207 183 217 234 220 312 288 242 246 228 213 214 213 215 213 203 201 199 198 199 197 194 195 197 197 191 188 191 192 192 191 191 192 191 189 188 188 189 192 194 194 196 198 199 201 204 206 208 209 208 209 210 209 212 216 218 220 221 221 224 227 229 232 235 237 239 240 240 240 242 245 247 248 250 249 247 249 253 250 246 246 247 247 244 242 246
180 193 211 204 195 208 222 235 211 226 252 224 197 237 243 270 280 257 233 243 229 217 215 215 217 204 190 198 199 198 199 197 196 197 196 193 188 188 192 193 193 192 191 191 190 188 188 189 190 192 194 195 197 199 200 202 203 204 207 209 208 208 209 209 212 217 218 219 222 224 225 228 230 232 235 236 237 239 240 240 241 244 247 249 250 250 248 247 250 249 245 247 248 247 245 242 243
182 199 198 168 191 217 227 235 209 216 241 215 200 236 233 220 243 226 214 226 231 219 214 219 216 197 193 203 201 200 199 196 198 197 193 189 187 189 192 194 195 194 192 190 188 186 188 190 191 192 193 194 196 198 199 201 202 203 204 207 208 208 209 210 212 215 214 214 220 223 223 227 231 232 233 234 235 238 240 240 241 242 245 248 249 251 250 247 247 246 243 245 248 248 246 243 242
228 211 173 167 205 209 205 228 224 223 237 222 215 240 239 221 221 210 206 215 225 219 212 222 212 192 201 209 203 200 198 196 198 196 191 189 189 190 192 195 196 194 192 190 188 188 190 191 192 194 195 195 196 197 198 201 203 202 203 206 208 208 208 209 208 209 210 214 218 220 221 225 229 230 231 233 234 236 238 240 241 242 244 246 249 250 250 248 245 241 236 238 245 246 244 244 244
226 208 181 195 221 207 201 215 221 224 234 232 225 237 242 227 224 237 222 210 219 218 208 218 211 195 202 209 204 199 196 197 198 196 193 191 192 193 192 194 194 192 190 188 188 190 192 192 192 194 195 195 195 196 197 200 202 201 201 204 206 209 209 208 207 208 212 216 218 219 220 223 226 229 231 232 234 235 238 240 240 240 241 243 246 248 248 246 241 236 232 234 241 244 243 244 246
210 208 204 204 203 201 208 215 215 221 232 229 225 237 243 208 195 229 234 218 217 218 213 217 211 203 204 204 201 196 194 199 198 195 196 194 193 195 194 194 193 190 188 187 189 191 191 192 192 193 193 192 194 195 197 200 200 198 201 204 205 208 210 209 208 210 213 215 217 219 220 220 224 228 230 231 233 236 238 240 240 239 240 242 245 246 246 244 240 237 234 233 237 239 241 244 247
257 238 232 220 218 208 209 216 212 216 232 229 228 249 254 207 165 217 229 227 222 216 215 218 213 209 209 205 201 196 193 198 198 196 197 194 192 193 192 189 188 188 187 188 190 190 189 192 192 192 192 192 194 195 195 198 198 198 202 204 205 207 209 208 206 209 212 213 215 219 220 220 223 228 231 232 234 236 239 241 240 240 242 243 245 245 244 244 243 242 238 234 234 235 238 242 245